Regional Weather Roundup
Issued by NWS Charleston, WV

Home | Current Version | Previous Version | Graphics & Text | Print | Product List | Glossary On
Versions: 1 2 3 4 5 6 7 8 9 10 11 12 13 14 15 16 17 18 19 20 21 22 23 24 25 26 27 28 29 30 31 32 33 34 35 36 37 38 39 40 41 42 43 44 45 46 47 48 49 50
000
ASUS41 KRLX 090410
RWRRLX
West Virginia Regional Weather Roundup
National Weather Service Charleston WV
1100 PM EST MON FEB 08 2016

Note: "fair" indicates few or no clouds below 12,000 feet with no
significant weather and/or obstructions to visibility.

WVZ003-090500-
Northern Panhandle of West Virginia

CITY           SKY/WX    TMP DP  RH WIND       PRES   REMARKS
WHEELING       CLOUDY    32  30  92 S5        29.59F FOG
$$

WVZ009-090500-
Northwest West Virginia

CITY           SKY/WX    TMP DP  RH WIND       PRES   REMARKS
PARKERSBURG    LGT SNOW  33  31  92 SW6       29.64F FOG
$$

WVZ006-090500-
Western West Virginia

CITY           SKY/WX    TMP DP  RH WIND       PRES   REMARKS
HUNTINGTON     CLOUDY    34  28  79 W7        29.67F
$$

WVZ015-090500-
West Central West Virginia

CITY           SKY/WX    TMP DP  RH WIND       PRES   REMARKS
CHARLESTON     CLOUDY    34  30  85 SW9       29.65F
$$

WVZ022-031-090500-
North Central West Virginia

CITY           SKY/WX    TMP DP  RH WIND       PRES   REMARKS
CLARKSBURG     LGT SNOW  33  32  96 S6        29.60F FOG
MORGANTOWN     CLOUDY    34  30  85 SW3       29.60F FOG
$$

WVZ025-035-042-045-090500-
Southern West Virginia

CITY           SKY/WX    TMP DP  RH WIND       PRES   REMARKS
BECKLEY        MOCLDY    28  23  81 W7        29.59F
LOGAN          FLURRIES  32  30  93 W7        29.64F
BLUEFIELD      FLURRIES  28  24  85 W6        29.60F
LEWISBURG      CLOUDY    32  28  83 CALM      29.60F
$$

WVZ047-090500-
Northern Mountains of West Virginia

CITY           SKY/WX    TMP DP  RH WIND       PRES   REMARKS
ELKINS         LGT SNOW  31  28  89 CALM      29.59S FOG
$$

WVZ052-090500-
Eastern Panhandle of West Virginia

CITY           SKY/WX    TMP DP  RH WIND       PRES   REMARKS
MARTINSBURG    CLOUDY    36  32  85 SE3       29.62F
PETERSBURG     CLOUDY    34  33  96 CALM      29.61F
$$



USA.gov is the U.S. government's official web portal to all federal, state and local government web resources and services.